World > North America > United States > Illinois
Hourly Weather in Arlington Heights, IllinoisArlington Heights, Illinois Hourly Weather

Arlington Heights, IL Hourly Weather

Hourly Weather Arlington Heights, IllinoisHourly Weather in Arlington Heights, IL
Lat: 42.09N, Lon: 87.98W  ICAO: KPWK
Web Search
Arlington Heights Weather Warning NWS WEATHER ALERT FOR THE ARLINGTON HEIGHTS, IL AREA - Issued: 355 PM CDT Sun Oct 24 2021 Arlington Heights Weather Warning  

Helpful Tip: Type the letters wx in the search engine next time you need to find us.

Feedback

Arlington Heights Hourly Weather

36 Hour Weather Scroll   °F Click to change Arlington Heights hourly weather to Imperial units.Click to change Arlington Heights hourly weather to Metric units. °C
Currently, Heavy Rain, temperature is 49°F9°C, dew point 45°F7°C, humidity 86%. Wind direction is E at 15 mph24 km/h with visibility of 6.00 mi10 km. Barometric pressure is 29.83 in1010 mb.

Oct 24
8:00 PM

Oct 24
9:00 PM

Oct 24
10:00 PM

Oct 24
11:00 PM

Oct 25
MIDNIGHT

Oct 25
1:00 AM

Oct 25
2:00 AM

Oct 25
3:00 AM

Oct 25
4:00 AM

Oct 25
5:00 AM

Oct 25
6:00 AM

Oct 25
7:00 AM

Oct 25
8:00 AM

Oct 25
9:00 AM

Oct 25
10:00 AM

Oct 25
11:00 AM

Oct 25
NOON

Oct 25
1:00 PM

Oct 25
2:00 PM

Oct 25
3:00 PM

Oct 25
4:00 PM

Oct 25
5:00 PM

Oct 25
6:00 PM

Oct 25
7:00 PM

Oct 25
8:00 PM

Oct 25
9:00 PM

Oct 25
10:00 PM

Oct 25
11:00 PM

Oct 26
MIDNIGHT

Oct 26
1:00 AM

Oct 26
2:00 AM

Oct 26
3:00 AM

Oct 26
7:00 AM

Oct 26
8:00 AM

Oct 26
9:00 AM

Oct 26
1:00 PM
Cloudy Cloudy Cloudy Cloudy Partly Cloudy Partly Cloudy Partly Cloudy Clear Clear Clear Clear Clear Clear Clear Clear Clear Mostly Clear Mostly Clear Mostly Clear Clear Clear Clear Clear Clear Clear Clear Clear Clear Clear Clear Clear Clear Clear Clear Clear Clear
Cloudy Cloudy Cloudy Cloudy Partly Cloudy Partly Cloudy Partly Cloudy Clear Clear Clear Clear Clear Clear Clear Clear Clear Mostly Clear Mostly Clear Mostly Clear Clear Clear Clear Clear Clear Clear Clear Clear Clear Clear Clear Clear Clear Clear Clear Clear Clear
47°F8°C 48°F9°C 48°F9°C 48°F9°C 47°F8°C 47°F8°C 46°F8°C 46°F8°C 45°F7°C 45°F7°C 44°F7°C 44°F7°C 46°F8°C 49°F9°C 51°F11°C 53°F12°C 54°F12°C 56°F13°C 56°F13°C 57°F14°C 57°F14°C 55°F13°C 53°F12°C 51°F11°C 50°F10°C 49°F9°C 48°F9°C 47°F8°C 47°F8°C 46°F8°C 45°F7°C 44°F7°C 43°F6°C 48°F9°C 53°F12°C 58°F14°C
- - - - - - - - - - - - - - - - - - - - - - - - - - - - - - - - - - - -
10% 10% 10% 10% 10% 10% 0% 0% 0% 0% 0% 0% 1% 1% 1% 1% 1% 1% 0% 0% 0% 0% 0% 0% 0% 0% 0% 0% 0% 0% 0% 0% 0% 5% 5% 5%
41°F5°C 41°F5°C 40°F4°C 40°F4°C 39°F4°C 39°F4°C 39°F4°C 38°F3°C 38°F3°C 38°F3°C 38°F3°C 38°F3°C 38°F3°C 39°F4°C 39°F4°C 39°F4°C 39°F4°C 39°F4°C 39°F4°C 39°F4°C 39°F4°C 39°F4°C 39°F4°C 39°F4°C 39°F4°C 40°F4°C 40°F4°C 40°F4°C 39°F4°C 39°F4°C 39°F4°C 38°F3°C 38°F3°C 39°F4°C 39°F4°C 40°F4°C
80% 77% 74% 74% 74% 74% 76% 73% 76% 76% 79% 79% 73% 68% 63% 59% 57% 53% 53% 51% 51% 55% 59% 63% 66% 71% 74% 76% 74% 76% 79% 79% 82% 71% 59% 51%
SE SSW N N N N N N N SSW SE N NNE NNE NE NE NE NE NE NE NE NE ENE ENE ENE E E E ESE ESE ESE SE SE SE SE SE
10 mph 7 mph 7 mph 7 mph 6 mph 6 mph 6 mph 5 mph 5 mph 5 mph 5 mph 5 mph 5 mph 6 mph 6 mph 6 mph 6 mph 6 mph 6 mph 7 mph 7 mph 7 mph 5 mph 5 mph 5 mph 2 mph 2 mph 2 mph 3 mph 3 mph 3 mph 4 mph 4 mph 4 mph 9 mph 9 mph
10 mi16 km 10 mi16 km 10 mi16 km 10 mi16 km 10 mi16 km 10 mi16 km 10 mi16 km 10 mi16 km 10 mi16 km 10 mi16 km 10 mi16 km 10 mi16 km 10 mi16 km 10 mi16 km 10 mi16 km 10 mi16 km 10 mi16 km 10 mi16 km 10 mi16 km 10 mi16 km 10 mi16 km 10 mi16 km 10 mi16 km 10 mi16 km 10 mi16 km 10 mi16 km 10 mi16 km 10 mi16 km 10 mi16 km 10 mi16 km 10 mi16 km 10 mi16 km 10 mi16 km 10 mi16 km 10 mi16 km 10 mi16 km
Hour (CDT)
Weather
Clouds
Temperature
Precip. Type
POP
Dewpoint
Humidity
Wind Direction
Wind Speed
Visibility
POP = Probability of Precipitation. ** Indicates missing data/values from model statistics.

24 Hour Forecast

Tonight - Windy. Rain and scattered thunderstorms in the evening, then showers and a slight chance of thunderstorms after midnight. Locally heavy rainfall possible in the evening. Temperatures nearly steady around 50. East winds 20 to 30 mph with gusts up to 40 mph. Chance of precipitation 100%.
Monday - Windy, showers. Temperatures nearly steady around 50. North winds 20 to 30 mph with gusts up to 35 mph inland...But northeast 30 to 40 mph with gusts up to 45 mph near the lake. Chance of precipitation 100%.

48 Hour Forecast API Feed


Sun, Oct 24
8:00 pm

Sun, Oct 24
9:00 pm

Sun, Oct 24
10:00 pm

Sun, Oct 24
11:00 pm

Mon, Oct 25
Midnight

Mon, Oct 25
1:00 am

Mon, Oct 25
2:00 am

Mon, Oct 25
3:00 am

Mon, Oct 25
4:00 am

Mon, Oct 25
5:00 am

Mon, Oct 25
6:00 am

Mon, Oct 25
7:00 am

Mon, Oct 25
8:00 am

Mon, Oct 25
9:00 am

Mon, Oct 25
10:00 am

Mon, Oct 25
11:00 am

Mon, Oct 25
Noon

Mon, Oct 25
1:00 pm

Mon, Oct 25
2:00 pm

Mon, Oct 25
3:00 pm

Mon, Oct 25
4:00 pm

Mon, Oct 25
5:00 pm

Mon, Oct 25
6:00 pm

Mon, Oct 25
7:00 pm

Mon, Oct 25
8:00 pm

Mon, Oct 25
9:00 pm

Mon, Oct 25
10:00 pm

Mon, Oct 25
11:00 pm

Tue, Oct 26
Midnight

Tue, Oct 26
1:00 am

Tue, Oct 26
2:00 am

Tue, Oct 26
3:00 am

Tue, Oct 26
4:00 am

Tue, Oct 26
5:00 am

Tue, Oct 26
6:00 am

Tue, Oct 26
7:00 am

Tue, Oct 26
8:00 am

Tue, Oct 26
9:00 am

Tue, Oct 26
10:00 am

Tue, Oct 26
11:00 am

Tue, Oct 26
Noon

Tue, Oct 26
1:00 pm

Tue, Oct 26
2:00 pm

Tue, Oct 26
3:00 pm

Tue, Oct 26
4:00 pm

Tue, Oct 26
5:00 pm

Tue, Oct 26
6:00 pm

Tue, Oct 26
7:00 pm
Light RainLight RainModerate RainLight RainLight RainModerate RainLight RainLight Rain ShowerModerate RainLight Rain ShowerLight Rain ShowerModerate RainLight DrizzleLight Rain ShowerLight DrizzleLight Rain ShowerLight Rain ShowerLight RainPatchy Rain PossiblePatchy Rain PossibleLight Rain ShowerPatchy Rain PossiblePatchy Rain PossibleLight DrizzleOvercastCloudyOvercastOvercastCloudyOvercastCloudyCloudyCloudyClearClearClearSunnySunnySunnySunnySunnySunnySunnySunnySunnySunnyClearClear
Light rain Light rain Moderate rain Light rain Light rain Moderate rain Light rain Light rain showers Moderate rain Light rain showers Light rain showers Moderate rain Light drizzle Light rain showers Light drizzle Light rain showers Light rain showers Light rain Patchy rain possible Patchy rain possible Light rain showers Patchy rain possible Patchy rain possible Light drizzle Overcast Cloudy Overcast Overcast Cloudy Overcast Cloudy Cloudy Cloudy Clear Clear Clear Sunny Sunny Sunny Sunny Sunny Sunny Sunny Sunny Sunny Sunny Clear Clear
49°F
10°C
49°F
10°C
50°F
10°C
50°F
10°C
50°F
10°C
50°F
10°C
50°F
10°C
50°F
10°C
49°F
10°C
49°F
10°C
50°F
10°C
49°F
10°C
49°F
10°C
49°F
9°C
49°F
9°C
49°F
10°C
49°F
9°C
48°F
9°C
48°F
9°C
48°F
9°C
48°F
9°C
49°F
9°C
49°F
10°C
50°F
10°C
49°F
10°C
50°F
10°C
50°F
10°C
50°F
10°C
49°F
10°C
50°F
10°C
50°F
10°C
50°F
10°C
49°F
10°C
48°F
9°C
47°F
8°C
46°F
8°C
47°F
8°C
50°F
10°C
52°F
11°C
53°F
12°C
55°F
13°C
55°F
13°C
56°F
13°C
55°F
13°C
54°F
12°C
52°F
11°C
51°F
11°C
51°F
11°C
46°F
8°C
47°F
8°C
47°F
9°C
48°F
9°C
47°F
8°C
47°F
8°C
47°F
9°C
48°F
9°C
47°F
9°C
47°F
9°C
47°F
9°C
47°F
8°C
46°F
8°C
45°F
7°C
44°F
7°C
45°F
7°C
45°F
7°C
44°F
7°C
44°F
7°C
43°F
6°C
42°F
6°C
42°F
5°C
40°F
5°C
39°F
4°C
38°F
3°C
38°F
3°C
38°F
3°C
38°F
3°C
38°F
3°C
38°F
3°C
37°F
3°C
37°F
3°C
35°F
2°C
35°F
1°C
35°F
2°C
35°F
2°C
36°F
2°C
36°F
2°C
36°F
2°C
36°F
2°C
37°F
3°C
36°F
2°C
35°F
2°C
35°F
2°C
35°F
2°C
36°F
2°C
37°F
3°C
38°F
3°C
29.8 in
1009 mb
29.77 in
1008 mb
29.8 in
1009 mb
29.77 in
1008 mb
29.74 in
1007 mb
29.74 in
1007 mb
29.71 in
1006 mb
29.71 in
1006 mb
29.68 in
1005 mb
29.68 in
1005 mb
29.68 in
1005 mb
29.71 in
1006 mb
29.74 in
1007 mb
29.77 in
1008 mb
29.8 in
1009 mb
29.8 in
1009 mb
29.83 in
1010 mb
29.85 in
1011 mb
29.88 in
1012 mb
29.91 in
1013 mb
29.94 in
1014 mb
29.97 in
1015 mb
30 in
1016 mb
30 in
1016 mb
30 in
1016 mb
30.03 in
1017 mb
30.03 in
1017 mb
30.03 in
1017 mb
30.03 in
1017 mb
30.06 in
1018 mb
30.06 in
1018 mb
30.06 in
1018 mb
30.09 in
1019 mb
30.09 in
1019 mb
30.09 in
1019 mb
30.09 in
1019 mb
30.09 in
1019 mb
30.09 in
1019 mb
30.12 in
1020 mb
30.09 in
1019 mb
30.09 in
1019 mb
30.09 in
1019 mb
30.06 in
1018 mb
30.06 in
1018 mb
30.03 in
1017 mb
30.03 in
1017 mb
30.03 in
1017 mb
30.03 in
1017 mb
90%91%92%93%91%91%92%93%93%92%92%90%87%86%86%86%85%86%84%83%80%75%70%66%64%63%62%63%64%63%61%60%57%59%64%66%64%58%54%52%50%48%46%46%49%53%57%60%
ENEENEENEENEENEENEEENEENEENEENENENENENENENNENNENNENNNNNNNENNENNENNENNENNENNENNNNNNNENENEENEENEENEENEENEENEENEEE
17 mph
28 km/h
18 mph
28 km/h
17 mph
27 km/h
18 mph
29 km/h
19 mph
31 km/h
19 mph
31 km/h
18 mph
29 km/h
17 mph
27 km/h
17 mph
28 km/h
18 mph
28 km/h
18 mph
29 km/h
19 mph
31 km/h
20 mph
32 km/h
21 mph
33 km/h
20 mph
33 km/h
19 mph
31 km/h
17 mph
28 km/h
17 mph
28 km/h
15 mph
25 km/h
14 mph
23 km/h
13 mph
21 km/h
13 mph
21 km/h
13 mph
21 km/h
12 mph
19 km/h
11 mph
18 km/h
11 mph
17 km/h
10 mph
17 km/h
9 mph
15 km/h
9 mph
14 km/h
8 mph
13 km/h
7 mph
12 km/h
7 mph
11 km/h
7 mph
12 km/h
8 mph
12 km/h
7 mph
11 km/h
6 mph
9 km/h
6 mph
10 km/h
7 mph
12 km/h
9 mph
14 km/h
9 mph
14 km/h
8 mph
13 km/h
8 mph
13 km/h
8 mph
13 km/h
8 mph
13 km/h
9 mph
14 km/h
9 mph
14 km/h
7 mph
11 km/h
6 mph
10 km/h
96%95%95%95%94%94%94%93%93%92%92%92%91%91%91%90%90%90%89%69%64%62%77%77%0%0%0%0%0%0%0%0%0%0%0%0%0%0%0%0%0%0%0%0%0%0%0%0%
6 mi
9 km
6 mi
9 km
4 mi
7 km
6 mi
9 km
6 mi
9 km
4 mi
7 km
6 mi
9 km
6 mi
10 km
4 mi
7 km
6 mi
10 km
6 mi
10 km
4 mi
7 km
1 mi
2 km
6 mi
10 km
1 mi
2 km
6 mi
10 km
6 mi
10 km
6 mi
9 km
6 mi
10 km
6 mi
10 km
6 mi
10 km
6 mi
10 km
6 mi
10 km
1 mi
2 km
6 mi
10 km
6 mi
10 km
6 mi
10 km
6 mi
10 km
6 mi
10 km
6 mi
10 km
6 mi
10 km
6 mi
10 km
6 mi
10 km
6 mi
10 km
6 mi
10 km
6 mi
10 km
6 mi
10 km
6 mi
10 km
6 mi
10 km
6 mi
10 km
6 mi
10 km
6 mi
10 km
6 mi
10 km
6 mi
10 km
6 mi
10 km
6 mi
10 km
6 mi
10 km
6 mi
10 km

Day/Time
Weather
Condition
Temperature
Dew Point
Pressure
Humidity
Wind Direction
Wind Speed
Prob Precip %
Visibility
Prob Precip % = Probability of Precipitation.